Weather History for Louisville Bowman, KY

Change the Weather History Date:

Wednesday, January 15, 2014

  Actual Average Record
Temperature  
Mean Temperature 28 °F 34 °F  
Max Temperature 33 °F 42 °F 68 °F (1950)
Min Temperature 23 °F 26 °F -5 °F (1972)
Degree Days  
Heating Degree Days 37 31  
Month to date heating degree days 499 459  
Since 1 July heating degree days 2247 2123  
Cooling Degree Days 0 0  
Month to date cooling degree days 0 0  
Year to date cooling degree days 0 0  
Moisture  
Dew Point 17 °F    
Average Humidity 61    
Maximum Humidity 69    
Minimum Humidity 53    
Precipitation  
Precipitation T in 0.12 in 1.36 in (1950)
Month to date precipitation 2.00 1.82  
Year to date precipitation 2.00 1.82  
Sea Level Pressure  
Sea Level Pressure 30.09 in    
Wind  
Wind Speed 8 mph (WNW)    
Max Wind Speed 17 mph    
Max Gust Speed 20 mph    
Visibility 10 miles    
Events Snow    
T = Trace of Precipitation, MM = Missing Value Source: NWS Daily Summary

Daily Weather History Graph

Daily Weather History Graph

Search for Another Location

Airport:

Trip Planner

Search our weather history database for the weather conditions in past years. The results will help you decide how hot, cold, wet, or windy it might be!

Date:

Astronomy

Jan. 15, 2014 Rise Set
Actual Time 7:57 AM EST 5:46 PM EST
Civil Twilight 7:29 AM EST 6:15 PM EST
Nautical Twilight 6:56 AM EST 6:47 PM EST
Astronomical Twilight 6:24 AM EST 7:19 PM EST
Moon 5:42 PM EST (1/15) 7:14 AM EST (1/15)
Length of Visible Light 10h 46m
Length of Day
9h 48m
Full, 100% of the Moon is Illuminated
Jan 15
Full
Jan 15
Full
Jan 24
Last Quarter
Jan 30
New
Feb 6
First Quarter

Hourly Weather History & Observations

Time (EST) Temp. Windchill Dew Point Humidity Pressure Visibility Wind Dir Wind Speed Gust Speed Precip Events Conditions
12:53 AM 32.0 °F 28.7 °F 21.9 °F 66% 30.00 in 10.0 mi NW 3.5 mph - N/A   Clear
1:53 AM 30.9 °F 22.8 °F 21.0 °F 67% 30.01 in 10.0 mi WNW 9.2 mph - N/A   Clear
2:53 AM 30.0 °F 23.2 °F 19.9 °F 66% 30.02 in 10.0 mi West 6.9 mph - N/A   Clear
3:53 AM 30.0 °F 24.1 °F 21.0 °F 69% 30.03 in 10.0 mi West 5.8 mph - N/A   Mostly Cloudy
4:41 AM 30.2 °F 20.8 °F 19.4 °F 64% 30.03 in 10.0 mi WNW 11.5 mph - N/A   Mostly Cloudy
4:53 AM 28.9 °F 18.6 °F 17.1 °F 61% 30.04 in 10.0 mi WNW 12.7 mph - N/A   Partly Cloudy
5:53 AM 28.0 °F 19.3 °F 15.1 °F 58% 30.05 in 10.0 mi West 9.2 mph - N/A   Scattered Clouds
6:53 AM 28.9 °F 21.9 °F 16.0 °F 58% 30.06 in 10.0 mi West 6.9 mph - N/A   Overcast
7:53 AM 28.9 °F 20.4 °F 17.1 °F 61% 30.08 in 10.0 mi WNW 9.2 mph - N/A   Overcast
8:25 AM 28.4 °F 22.2 °F 17.6 °F 64% 30.07 in 10.0 mi WNW 5.8 mph - N/A   Overcast
8:53 AM 28.0 °F 20.0 °F 19.0 °F 69% 30.09 in 10.0 mi WNW 8.1 mph - N/A   Overcast
9:15 AM 28.4 °F 21.2 °F 19.4 °F 69% 30.09 in 10.0 mi NW 6.9 mph - N/A   Overcast
9:53 AM 27.0 °F 18.0 °F 19.0 °F 72% 30.12 in 3.0 mi WNW 9.2 mph - 0.00 in Snow Light Snow
10:13 AM 26.6 °F 18.2 °F 19.4 °F 74% 30.11 in 6.0 mi WNW 8.1 mph - 0.00 in Snow Light Snow
10:53 AM 28.9 °F 19.8 °F 15.1 °F 56% 30.14 in 10.0 mi WNW 10.4 mph - 0.00 in   Overcast
11:53 AM 30.0 °F 21.7 °F 15.1 °F 54% 30.13 in 10.0 mi WNW 9.2 mph 17.3 mph N/A   Unknown
12:53 PM 28.0 °F 17.5 °F 15.1 °F 58% 30.12 in 10.0 mi NW 12.7 mph 18.4 mph N/A   Overcast
1:53 PM 28.9 °F 19.8 °F 14.0 °F 54% 30.10 in 9.0 mi WNW 10.4 mph - 0.00 in Snow Light Snow
2:53 PM 28.9 °F 21.9 °F 15.1 °F 56% 30.10 in 9.0 mi WNW 6.9 mph - 0.00 in Snow Light Snow
3:53 PM 30.0 °F 22.4 °F 12.9 °F 49% 30.11 in 9.0 mi NNW 8.1 mph - 0.00 in   Overcast
4:53 PM 28.9 °F 19.8 °F 14.0 °F 54% 30.12 in 10.0 mi WNW 10.4 mph - N/A   Overcast
5:53 PM 28.9 °F 20.4 °F 14.0 °F 54% 30.13 in 10.0 mi WNW 9.2 mph - N/A   Overcast
6:53 PM 28.0 °F 19.3 °F 16.0 °F 61% 30.15 in 10.0 mi NW 9.2 mph - N/A   Overcast
7:53 PM 26.1 °F - 16.0 °F 66% 30.14 in 10.0 mi Calm Calm - N/A   Mostly Cloudy
8:53 PM 26.1 °F 17.6 °F 17.1 °F 69% 30.14 in 10.0 mi West 8.1 mph - N/A   Overcast
9:53 PM 26.1 °F 16.8 °F 16.0 °F 66% 30.15 in 10.0 mi West 9.2 mph - N/A   Overcast
10:46 PM 26.6 °F 19.1 °F 15.8 °F 64% 30.12 in 10.0 mi West 6.9 mph - N/A   Overcast
10:53 PM 26.1 °F 19.4 °F 16.0 °F 66% 30.13 in 10.0 mi West 5.8 mph - N/A   Overcast
11:24 PM 24.8 °F 17.9 °F 15.8 °F 69% 30.11 in 10.0 mi SW 5.8 mph - N/A   Scattered Clouds
11:53 PM 23.0 °F 14.7 °F 14.0 °F 68% 30.12 in 10.0 mi WSW 6.9 mph - N/A   Clear